CAPE
290 242 141 190 406 275 317 194 201 110 32 0 4 280 55 219 230 536 461 426 961 1309 1500 1544 1421 1662 1565 1497 1718 1429 941 1522
88 75 184 116 217 130 369 355 527 322 0 0 34 189 95 250 242 236 345 823 1020 1117 1057 1361 1174 1449 1810 1779 1946 1382 977 1131
52 126 186 299 304 170 134 160 147 282 183 359 516 363 341 132 125 151 484 975 1282 1167 1338 1168 1416 1427 1744 1850 1915 1060 634 808
7 41 146 64 84 135 52 1 122 103 317 279 263 309 365 90 149 351 761 923 1270 1127 1431 1377 1523 1369 1353 1394 1507 1074 292 536
1 0 0 4 16 0 3 159 112 76 210 345 59 325 477 164 145 741 1218 1003 1252 1257 1536 1310 1420 1488 1459 1416 1438 1278 550 289
0 0 2 17 12 19 0 4 275 70 54 109 8 163 366 335 643 533 809 1258 1303 1232 1405 1658 1725 1969 1759 1514 1716 1314 796 546
0 0 0 2 58 156 8 0 44 87 43 10 11 167 361 345 535 579 581 575 1145 1035 1654 2178 2520 2585 2397 1848 1594 1496 1122 832
0 0 0 0 0 5 13 0 0 258 70 0 0 5 358 400 631 644 657 885 1133 1545 2001 2255 2702 2793 2670 2576 1729 1733 1841 1306
0 0 0 0 0 0 0 25 3 138 38 0 55 326 309 311 553 650 602 951 1231 1759 1873 2020 2441 2647 2738 2678 2215 2611 2531 2875
0 0 0 0 0 0 0 0 0 112 229 154 41 185 319 219 605 841 540 998 1541 1593 1896 2272 2232 2291 2449 2728 2638 3090 2884 2939
16 0 0 0 0 1 0 0 0 0 0 42 25 3 105 23 701 789 510 810 1302 1158 1791 2280 2405 2702 2965 3322 3629 3483 3559 3134
6 9 16 7 37 30 9 5 0 0 0 0 1 11 22 298 542 579 386 344 639 360 1335 1773 2621 2877 3357 3223 3500 3489 3691 3583
0 0 2 19 47 54 66 303 523 615 810 837 1001 771 181 326 609 606 659 558 490 396 1304 1836 2995 3170 3360 3978 3974 3978 3427 3699
0 4 0 6 14 14 714 681 724 692 731 836 883 852 858 724 245 308 308 624 605 665 1744 2347 2809 3460 3793 3948 4253 4433 4238 2939
0 0 164 54 22 50 690 769 569 365 241 548 498 470 625 575 288 42 216 699 582 807 2464 2637 2916 3317 3823 4239 4524 4519 3607 2821
14 0 35 0 1 385 536 688 363 143 115 202 213 177 283 339 449 894 1272 1371 928 1425 2640 2937 3154 3455 3838 4334 4532 4468 3441 2528
2 0 7 15 247 45 0 62 36 1 0 0 14 3 3 92 614 482 1287 1412 1886 1758 2886 3343 3569 3817 4114 4438 4516 4171 3334 2304
0 14 165 157 59 13 0 0 0 0 0 0 0 0 0 6 312 689 815 1647 1880 2958 3391 3842 3941 4102 4311 4490 4452 3861 2783 2027
0 0 0 0 0 23 0 0 0 0 0 0 0 0 0 0 202 265 867 1560 1994 2810 3923 4166 4182 4292 4303 4498 4356 3543 2635 2017
CIN
-5 -0 -9 -9 -4 -32 -0 -18 -1 -120 -121 -0 -35 -62 -11 -1 -3 -7 -7 -17 -3 -24 -4 -3 -2 -7 -19 -28 -1 -3 -0 -4
-62 -83 -5 -3 -38 -102 -16 -1 -1 -17 -35 -0 -315 -84 -8 -1 -1 -4 -7 -6 -3 -1 -1 -1 -1 -0 -4 -32 -0 -1 -0 -0
-4 -4 -0 -4 -6 -20 -8 -1 -1 -20 -92 -75 -141 -88 -34 -1 -4 -8 -7 -3 -9 -11 -0 -3 -0 -0 -0 -11 -1 -38 -30 -30
-1 -8 -0 -9 -2 -1 -2 -0 -24 -17 -6 -380 -173 -78 -39 -3 -1 -2 -4 -4 -15 -15 -2 -2 -0 -0 -0 -3 -20 -81 -145 -80
-0 -0 -0 -0 -12 -0 -5 -1 -105 -39 -43 -202 -222 -123 -0 -1 -4 -22 -11 -14 -11 -5 -1 -7 -0 -2 -0 -23 -7 -35 -174 -184
-0 -0 -0 -1 -0 -4 -0 -1 -129 -94 -323 -267 -274 -296 -27 -1 -3 -15 -6 -7 -1 -2 -6 -4 -6 -12 -14 -24 -11 -55 -105 -107
-0 -0 -0 -5 -1 -2 -6 -0 -26 -132 -214 -365 -273 -276 -89 -4 -6 -4 -0 -12 -1 -1 -15 -11 -15 -18 -17 -15 -65 -78 -89 -135
-0 -0 -0 -0 -0 -13 -0 -0 -0 -12 -123 -0 -0 -242 -2 -3 -1 -2 -1 -3 -2 -9 -23 -20 -16 -18 -14 -46 -78 -56 -67 -60
-0 -0 -0 -0 -0 -0 -0 -3 -2 -1 -108 -0 -22 -4 -1 -0 -5 -0 -1 -3 -3 -7 -30 -38 -33 -24 -11 -46 -49 -38 -54 -24
-0 -0 -0 -0 -0 -0 -0 -0 -0 -6 -11 -1 -12 -7 -7 -3 -12 -21 -28 -19 -8 -6 -26 -34 -31 -31 -8 -3 -43 -41 -33 -27
-0 -0 -0 -0 -0 -0 -0 -0 -0 -0 -0 -32 -11 -9 -141 -50 -14 -31 -59 -49 -24 -5 -12 -51 -42 -41 -12 -16 -19 -14 -5 -10
-1 -1 -0 -2 -2 -2 -1 -1 -0 -0 -0 -0 -1 -2 -15 -2 -8 -15 -49 -59 -57 -66 -9 -41 -31 -33 -12 -43 -24 -20 -3 -4
-0 -0 -0 -5 -2 -4 -0 -4 -26 -12 -40 -31 -19 -19 -13 -21 -36 -23 -21 -51 -65 -85 -15 -54 -44 -44 -30 -6 -10 -16 -17 -0
-0 -11 -0 -16 -12 -8 -12 -44 -46 -72 -111 -63 -80 -83 -96 -108 -457 -426 -302 -32 -37 -28 -48 -79 -77 -36 -16 -11 -2 -1 -3 -30
-0 -0 -8 -33 -24 -11 -11 -39 -87 -106 -149 -90 -118 -150 -125 -173 -438 -867 -642 -20 -16 -14 -62 -99 -114 -101 -33 -6 -4 -1 -13 -40
-2 -0 -1 -0 -0 -27 -51 -42 -131 -181 -177 -152 -149 -191 -225 -246 -268 -220 -254 -252 -14 -19 -67 -118 -126 -127 -93 -10 -2 -0 -41 -82
-1 -0 -23 -22 -25 -88 -0 -197 -227 -89 -0 -0 -145 -166 -205 -329 -282 -307 -333 -367 -291 -41 -84 -134 -146 -118 -72 -26 -0 -3 -32 -123
-0 -16 -13 -18 -5 -26 -0 -0 -0 -0 -0 -0 -0 -0 -0 -131 -364 -372 -422 -391 -334 -137 -98 -120 -129 -104 -59 -23 -11 -29 -91 -161
-0 -0 -0 -0 -0 -2 -0 -0 -0 -0 -0 -0 -0 -0 -0 -0 -348 -487 -404 -371 -355 -248 -63 -120 -113 -73 -64 -16 -28 -83 -159 -219
Wind_Speed
30 12 14 13 17 6 10 12 13 5 2 6 24 13 7 18 19 24 19 12 21 25 21 17 16 18 15 13 12 12 11 7
5 9 17 18 9 4 7 6 7 7 6 6 23 17 9 18 18 20 19 21 19 18 18 17 17 15 17 15 12 11 12 10
13 15 15 9 12 11 18 4 10 2 5 11 26 19 14 15 18 20 20 20 18 16 17 17 16 15 14 14 13 11 10 6
20 20 15 13 18 16 13 14 1 2 2 7 25 27 22 12 17 20 21 19 20 14 18 17 16 17 16 14 16 13 11 8
20 16 16 14 15 17 20 4 4 2 5 8 23 24 18 15 11 14 20 17 21 18 16 16 15 16 16 15 15 14 12 11
16 18 15 14 17 14 18 14 12 4 6 19 26 19 8 14 17 15 11 13 19 17 17 15 14 14 13 13 9 14 14 12
18 20 23 22 20 16 17 20 11 10 17 21 26 23 22 18 16 15 13 16 15 16 15 13 12 12 12 14 15 14 13 11
21 22 22 21 20 13 15 15 17 16 8 15 30 36 13 18 16 15 13 16 14 15 18 15 14 12 12 11 15 13 13 14
16 16 18 20 20 16 18 14 17 14 23 25 33 7 15 17 17 15 14 15 15 17 18 16 15 13 12 14 13 9 11 9
14 18 23 14 16 15 19 19 16 11 9 4 9 8 9 19 20 18 15 15 13 15 16 16 16 15 13 11 13 9 11 10
12 15 14 18 21 16 15 15 17 18 9 1 7 8 18 32 20 20 18 17 14 15 17 15 15 15 13 12 11 10 10 11
11 14 18 12 14 7 13 11 11 12 17 16 35 9 5 8 14 21 20 17 17 17 19 18 16 16 14 14 13 12 11 12
13 12 12 12 11 11 8 2 12 15 19 17 12 12 9 6 9 17 19 20 18 17 19 18 16 17 16 16 16 14 13 13
13 16 19 14 14 5 5 10 8 12 13 10 14 15 16 18 16 12 9 21 21 15 16 18 18 16 16 17 15 14 14 14
14 10 11 13 14 6 11 14 11 11 11 10 12 10 11 10 15 12 22 20 19 17 18 18 18 19 17 15 15 15 16 15
11 16 15 7 16 12 12 11 11 10 9 11 9 10 10 11 12 9 13 13 10 19 20 18 18 19 18 16 16 16 17 16
14 13 8 7 10 11 7 7 9 8 9 10 10 10 10 10 11 13 12 15 13 15 20 20 19 18 17 18 17 16 15 15
6 11 6 8 2 11 7 6 5 4 5 7 8 8 8 8 9 10 12 12 12 6 19 17 18 18 18 19 20 18 16 13
15 15 15 13 11 2 7 5 3 3 3 2 5 7 7 7 7 9 9 11 13 12 12 18 18 17 17 19 20 19 16 16
Wind_Direction
202 197 227 226 250 26 263 243 267 161 132 270 286 294 212 169 156 146 172 121 148 159 160 156 156 153 162 166 178 165 177 179
158 333 242 248 116 21 290 263 317 92 72 216 281 293 184 149 158 163 165 160 157 155 160 153 162 166 156 170 180 172 159 179
207 202 226 204 193 201 271 260 283 67 215 245 240 268 277 172 174 164 167 157 146 157 159 160 163 167 157 164 153 151 163 214
258 215 196 232 275 241 234 246 127 61 111 43 288 289 264 196 178 164 159 152 163 160 153 160 166 167 170 168 154 164 161 187
260 259 250 200 229 258 277 271 69 161 101 252 303 303 180 182 159 127 142 155 156 165 153 159 169 168 168 176 156 158 159 168
245 244 246 219 223 243 271 272 150 187 83 342 306 300 247 165 131 133 147 147 157 161 156 161 168 165 164 167 153 150 161 170
258 255 267 274 224 211 227 252 207 121 178 192 241 271 251 139 140 143 168 165 164 162 153 156 158 158 158 174 165 155 164 166
254 261 263 269 274 257 211 242 255 160 86 213 215 256 153 147 148 155 177 163 171 156 150 153 155 160 158 144 166 169 177 183
250 257 265 259 259 269 272 227 238 248 179 173 237 175 163 154 154 165 177 163 169 156 157 156 160 163 163 155 170 169 150 152
237 239 244 256 259 250 254 271 275 253 241 208 167 173 194 170 160 161 169 163 170 158 159 157 161 167 166 168 167 150 160 164
250 239 256 234 245 239 233 235 254 272 251 126 248 178 99 283 155 160 162 163 165 161 159 155 165 162 162 153 151 158 164 155
258 254 246 239 264 245 272 267 217 228 247 150 246 194 180 171 169 162 162 167 170 176 157 163 163 161 161 161 168 174 171 161
232 253 256 266 287 9 249 56 18 30 29 45 41 16 114 110 8 169 164 165 171 174 160 165 162 166 171 167 175 175 167 152
246 228 234 267 308 326 63 75 42 39 37 29 40 36 20 52 34 12 356 167 168 172 156 159 162 166 176 181 171 166 154 156
237 237 236 277 276 12 53 78 57 46 34 30 49 24 28 25 102 51 309 192 171 166 152 160 166 166 179 178 169 165 151 160
240 238 232 293 247 93 44 80 83 50 37 39 34 31 18 6 359 1 349 341 189 158 153 162 169 171 175 171 171 165 161 159
253 268 309 311 93 92 87 67 76 66 48 41 22 22 11 9 360 354 343 345 342 164 158 167 169 172 171 167 170 165 169 161
286 313 220 284 166 148 146 115 71 37 51 43 23 4 9 7 356 358 339 333 338 327 156 163 167 170 172 172 171 169 169 169
298 306 311 313 333 30 157 167 210 272 315 9 344 333 347 347 12 331 342 339 342 341 179 160 171 176 179 174 173 177 173 172